Regional Weather Roundup
Issued by NWS Upton, NY

Current Version | Previous Version | Text Only | Print | Product List | Glossary On
Versions: 1 2 3 4 5 6 7 8 9 10 11 12 13 14 15 16 17 18 19 20 21 22 23 24 25 26 27 28 29 30 31 32 33 34
000 ASUS41 KOKX 091608 RWROKX REGIONAL WEATHER ROUNDUP NATIONAL WEATHER SERVICE NEW YORK NY 1100 AM EST FRI DEC 09 2016 NOTE: "FAIR" INDICATES FEW OR NO CLOUDS BELOW 12,000 FEET WITH NO SIGNIFICANT WEATHER AND/OR OBSTRUCTIONS TO VISIBILITY. NYZ071-072-176-178-NJZ106-104-091700- NEW YORK CITY METRO AREA CITY SKY/WX TMP DP RH WIND PRES REMARKS Central Park N/A 39 19 45 MISG N/A Wall St Helipt PTSUNNY 39 21 48 VRB3 30.13F Bronx Bot Gard N/A 36 16 44 W13 30.11F WCI 27 LaGuardia APRT PTSUNNY 39 20 46 NW18G28 30.11S WCI 30 Kennedy INTL PTSUNNY 39 18 42 W20G26 30.13S WCI 29 Breezy Point N/A 36 N/A N/A NW14G23 N/A WCI 27 Newark/Liberty MOSUNNY 38 19 46 W24G31 30.13S WCI 27 Teterboro PTSUNNY 38 19 46 NW15G25 30.10F WCI 29 $$ NYZ177-179-078>081-091700- LONG ISLAND NEW YORK CITY SKY/WX TMP DP RH WIND PRES REMARKS Jones Beach N/A 36 N/A N/A NW18G25 N/A WCI 25 Matinecock PT NOT AVBL Farmingdale PTSUNNY 37 19 48 NW12 30.10F WCI 29 MacArthur/ISP PTSUNNY 38 19 46 W21G28 30.08S WCI 28 Shirley MOSUNNY 38 18 44 NW18G25 30.08S WCI 28 Westhampton NOT AVBL Southampton N/A 39 25 56 NW13 30.03S WCI 32 Bridgehampton NOT AVBL East Hampton CLOUDY 36 19 51 N10G18 30.05S WCI 28 Montauk N/A 37 20 50 W12G23 30.05S WCI 29 $$ NYZ052-065-067-091700- HUDSON VALLEY CITY SKY/WX TMP DP RH WIND PRES REMARKS White Plains PTSUNNY 36 18 48 NW18G26 30.07S WCI 26 Newburgh MOSUNNY 34 21 60 NW17G29 30.09S WCI 23 Montgomery PTSUNNY 34 20 56 NW13G22 30.08S WCI 25 Poughkeepsie CLOUDY 37 15 40 W18G28 30.07F WCI 27 Albany MOSUNNY 30 15 53 NW15G25 30.07R WCI 19 $$ NJZ001-105-106-008-010-013-015-019>022-104-091700- NEW JERSEY CITY SKY/WX TMP DP RH WIND PRES REMARKS Newark/Liberty MOSUNNY 38 19 46 W24G31 30.13S WCI 27 Teterboro PTSUNNY 38 19 46 NW15G25 30.10F WCI 29 Caldwell MOSUNNY 36 19 50 W20G30 30.12F WCI 25 Somerville MOSUNNY 37 17 44 NW15G26 30.13S WCI 28 Linden N/A 37 18 45 NW24G37 30.14F WCI 26 Sussex MOSUNNY 36 15 42 NW10G23 30.10S WCI 28 Andover N/A 35 18 49 N9G17 30.11F WCI 28 Trenton SUNNY 37 19 48 NW10G22 30.17S WCI 30 Millville SUNNY 37 20 50 W12G24 30.24R WCI 29 Atlantic City SUNNY 38 19 46 W17 30.20F WCI 28 Wrightstown MOSUNNY 37 19 48 W16 30.16F WCI 27 Toms River SUNNY 37 19 48 W20G30 30.17F WCI 27 Belmar SUNNY 37 19 48 W20G25 30.15F WCI 27 $$ PAZ047>061-062-071-091700- EASTERN PENNSYLVANIA CITY SKY/WX TMP DP RH WIND PRES REMARKS Philadelphia PTSUNNY 36 17 46 W20G26 30.24R WCI 25 Allentown PTSUNNY 35 18 49 W17G29 30.17S WCI 25 Scranton CLOUDY 32 17 54 W17G26 30.14S WCI 21 $$ CTZ002-004>006-009-010-012-RIZ004-006-007-MAZ004-011-015-091700- SOUTHERN NEW ENGLAND IN CT CITY SKY/WX TMP DP RH WIND PRES REMARKS Bradley INTL PTSUNNY 34 15 46 NW20G26 30.04S WCI 23 Hartford PTSUNNY 36 16 44 NW17G25 30.05S WCI 26 Danbury MOSUNNY 36 16 44 W13G20 30.06F WCI 27 Wtrbury/Oxford MOSUNNY 34 14 44 N8G17 30.04S WCI 27 Bridgeport SUNNY 39 16 38 NW17G23 30.06F WCI 30 Meriden MOSUNNY 38 15 39 NW10G21 30.05S WCI 31 New Haven MOSUNNY 37 16 42 NW14G23 30.05F WCI 28 Chester PTSUNNY 34 14 44 NW12G23 30.03S WCI 25 Groton MOSUNNY 39 16 39 NW20G28 30.03S WCI 29 Wilimantic PTSUNNY 36 16 44 NW15G26 30.03F WCI 27 IN RI CITY SKY/WX TMP DP RH WIND PRES REMARKS Providence MOSUNNY 36 12 37 NW16G30 30.00S WCI 26 Block Island SUNNY 36 17 46 NW16G28 30.02S WCI 26 Westerly MOSUNNY 37 14 38 W8G21 30.03S WCI 31 IN MA CITY SKY/WX TMP DP RH WIND PRES REMARKS Boston MOSUNNY 35 13 40 NW24 29.96S WCI 23 Worcester MOSUNNY 29 10 45 W22G32 29.94R WCI 15 Westfield PTSUNNY 32 16 51 NW16G28 30.02S WCI 21 Provincetown PTSUNNY 36 20 52 W21G28 29.94S WCI 25 Nantucket MOSUNNY 38 20 48 NW20G26 29.96F WCI 28 $$ ANZ330-335-338-340-345-350-353-355-091700- COASTAL MARINE OBSERVATIONS STATION/POSITION TIME SKY/WX TEMP WIND PRES VSBY WAVE AIR SEA DIR/SP/G HT/PER (UTC) (F) (DEG/KT/KT) (MB) (MI) (FT/S) NY HARB ENTRANCE 1450 36 52 280/ 23/ 29 1019.8 4/ 4 20 S FIRE ISLAND 1450 37 53 310/ 23/ 29 1019.1 7/ 6 GREAT SOUTH BAY 1530 36 41 N/A 23 SSW MONTAUK P 1450 38 54 300/ 23/ 31 1017.4 6/ 7 15 E BARNEGAT LI 1530 52 N/A 5/ 5 HUDSON CANYON 1450 40 57 1019.1 10/ 8 KINGS POINT 1536 36 46 1019.4 EXECUTION ROCKS 1545 39 290/ 16/ 23 N/A CENTRAL LI SOUND 1515 37 49 290/ 19/ 25 N/A 4/ 5 EASTERN LI SOUND NOT AVBL ROBBINS REEF 1536 35 300/ 24/ 31 1020.1 $$ >>>>>>>>>>>>>>>>>>>>>>>>>>>> KEY <<<<<<<<<<<<<<<<<<<<<<<<<<< > < > SKY/WX - Sky Condition/Present Weather < > TMP - Temperature in Fahrenheit < > DP - Dew Point in Fahrenheit < > RH - Relative Humidity in Percent < > WIND - Direction (from) and Speed in MPH < > PRES - Mean Sea Level Pressure (inches of Hg) < > WCI - Wind Chill Index < > VSB - VISIBILITY IN MILES < > HX - HEAT INDEX < > TC - TEMPERATURE IN CELSIUS < > VRB - VARIABLE WIND DIRECTION < > < >>>>>>>>>>>>>>>>>>>>>>>>>>>> KEY <<<<<<<<<<<<<<<<<<<<<<<<<<<

USA.gov is the U.S. government's official web portal to all federal, state and local government web resources and services.